TimeMDT,TemperatureF,Dew PointF,Humidity,Sea Level PressureIn,VisibilityMPH,Wind Direction,Wind SpeedMPH,Gust SpeedMPH,PrecipitationIn,Events,Conditions,WindDirDegrees,DateUTC
12:15 AM,51.8,50.0,94,30.14,10.0,NNW,6.9,-,N/A,,Mostly Cloudy,340,2013-06-26 06:15:00
12:35 AM,50.0,50.0,100,30.14,10.0,NNW,3.5,-,N/A,,Partly Cloudy,330,2013-06-26 06:35:00
12:55 AM,51.8,50.0,94,30.14,10.0,Calm,Calm,-,N/A,,Partly Cloudy,0,2013-06-26 06:55:00
1:15 AM,48.2,46.4,93,30.14,10.0,Calm,Calm,-,N/A,,Mostly Cloudy,0,2013-06-26 07:15:00
1:35 AM,48.2,46.4,93,30.14,10.0,Calm,Calm,-,N/A,,Mostly Cloudy,0,2013-06-26 07:35:00
1:55 AM,46.4,44.6,93,30.14,9.0,NNW,5.8,-,N/A,,Scattered Clouds,340,2013-06-26 07:55:00
2:15 AM,46.4,44.6,93,30.14,8.0,ENE,3.5,-,N/A,,Clear,70,2013-06-26 08:15:00
2:55 AM,48.2,46.4,93,30.15,10.0,Calm,Calm,-,N/A,,Partly Cloudy,0,2013-06-26 08:55:00
3:15 AM,46.4,46.4,100,30.15,10.0,Calm,Calm,-,N/A,,Scattered Clouds,0,2013-06-26 09:15:00
3:55 AM,42.8,42.8,100,30.16,0.5,North,5.8,-,N/A,,Overcast,350,2013-06-26 09:55:00
4:15 AM,44.6,44.6,100,30.16,10.0,North,3.5,-,N/A,,Overcast,10,2013-06-26 10:15:00
4:35 AM,46.4,46.4,100,30.17,10.0,Calm,Calm,-,N/A,,Overcast,0,2013-06-26 10:35:00
4:55 AM,46.4,46.4,100,30.17,10.0,Calm,Calm,-,N/A,,Overcast,0,2013-06-26 10:55:00
5:15 AM,46.4,46.4,100,30.18,10.0,Calm,Calm,-,N/A,,Overcast,0,2013-06-26 11:15:00
5:35 AM,46.4,46.4,100,30.18,10.0,Calm,Calm,-,N/A,,Overcast,0,2013-06-26 11:35:00
5:55 AM,46.4,46.4,100,30.18,10.0,Calm,Calm,-,N/A,,Mostly Cloudy,0,2013-06-26 11:55:00
6:15 AM,44.6,42.8,93,30.19,10.0,Calm,Calm,-,N/A,,Mostly Cloudy,0,2013-06-26 12:15:00
6:51 AM,46.4,46.4,100,30.20,2.0,Calm,Calm,-,N/A,,Overcast,0,2013-06-26 12:51:00
7:54 AM,48.2,46.4,93,30.21,7.0,Calm,Calm,-,N/A,,Overcast,0,2013-06-26 13:54:00
8:54 AM,53.6,51.8,94,30.22,10.0,Calm,Calm,-,N/A,,Overcast,0,2013-06-26 14:54:00
9:06 AM,53.6,51.8,94,30.23,10.0,SE,3.5,-,N/A,,Overcast,130,2013-06-26 15:06:00
9:58 AM,57.2,53.6,88,30.23,10.0,ESE,4.6,-,N/A,,Mostly Cloudy,110,2013-06-26 15:58:00
10:54 AM,62.6,51.8,68,30.24,10.0,SW,9.2,-,N/A,,Overcast,230,2013-06-26 16:54:00
11:51 AM,69.8,46.4,43,30.24,10.0,South,13.8,17.3,N/A,,Scattered Clouds,180,2013-06-26 17:51:00
12:51 PM,69.8,46.4,43,30.24,10.0,South,13.8,-,N/A,,Mostly Cloudy,180,2013-06-26 18:51:00
1:54 PM,71.6,46.4,41,30.24,10.0,South,15.0,21.9,N/A,,Mostly Cloudy,180,2013-06-26 19:54:00
2:53 PM,71.6,44.6,38,30.23,10.0,SSW,9.2,16.1,N/A,,Mostly Cloudy,200,2013-06-26 20:53:00
3:53 PM,75.2,42.8,31,30.22,10.0,WSW,19.6,23.0,N/A,,Scattered Clouds,240,2013-06-26 21:53:00
4:51 PM,75.2,41.0,29,30.22,10.0,WSW,16.1,26.5,N/A,,Scattered Clouds,240,2013-06-26 22:51:00
5:52 PM,75.2,41.0,29,30.22,10.0,WSW,18.4,28.8,N/A,,Scattered Clouds,240,2013-06-26 23:52:00
6:51 PM,75.2,42.8,31,30.22,10.0,SW,17.3,23.0,N/A,,Scattered Clouds,230,2013-06-27 00:51:00
7:51 PM,73.4,44.6,36,30.23,10.0,SW,11.5,-,N/A,,Clear,220,2013-06-27 01:51:00
8:51 PM,68.0,44.6,43,30.24,10.0,West,5.8,-,N/A,,Clear,260,2013-06-27 02:51:00
8:55 PM,68.0,44.6,43,30.24,10.0,West,4.6,-,N/A,,Clear,270,2013-06-27 02:55:00
9:15 PM,64.4,46.4,52,30.25,10.0,WSW,3.5,-,N/A,,Clear,250,2013-06-27 03:15:00
9:35 PM,64.4,46.4,52,30.26,10.0,WSW,4.6,-,N/A,,Clear,240,2013-06-27 03:35:00
9:55 PM,62.6,46.4,55,30.27,10.0,West,8.1,-,N/A,,Clear,260,2013-06-27 03:55:00
10:15 PM,64.4,46.4,52,30.28,10.0,WSW,10.4,-,N/A,,Clear,240,2013-06-27 04:15:00
10:35 PM,68.0,46.4,46,30.29,10.0,West,11.5,20.7,N/A,,Clear,280,2013-06-27 04:35:00
10:55 PM,66.2,46.4,49,30.29,10.0,ESE,5.8,-,N/A,,Clear,110,2013-06-27 04:55:00
11:15 PM,62.6,46.4,55,30.30,10.0,East,3.5,-,N/A,,Clear,80,2013-06-27 05:15:00
11:35 PM,60.8,46.4,59,30.30,10.0,Calm,Calm,-,N/A,,Clear,0,2013-06-27 05:35:00
11:55 PM,62.6,46.4,55,30.31,10.0,Calm,Calm,-,N/A,,Clear,0,2013-06-27 05:55:00